Location: Banff
(51.1667°N, 115.5667°W)
Time: 23:02:34
(UTC+00:00)

deb Explorer IX - Pass Details

Date: 26 November 2020
Orbit: 536 x 1104 km, 38.8° (Epoch: 24 January)

Event Time Altitude Azimuth Distance (km) Brightness Sun altitude
Rises 02:33:24 0° 231° (SW) 3,232 ? -26.1°
Reaches altitude 10° 02:36:48 10° 212° (SSW) 2,183 ? -26.6°
Enters shadow 02:39:12 16° 184° (S) 1,722 ? -27.0°
